SAS1257 EKCH-EKAH

Flight info

Callsign SAS1257
Flight time N/A
Altitude 16000
Route GOLGA T505 ASLID
Aircraft E135/M-SABDFGRW/S

Departure

Time 2026-04-22 18:13
Airport Copenhagen Kastrup Airport (EKCH)

Arrival

Time N/A
Airport Aarhus Airport (EKAH)
Time Latitude Longitude Altitude Speed Heading
2026-04-22 17:43 55.62745 12.66472 15 ft 0 kts 131°
2026-04-22 17:58 55.62754 12.66454 15 ft 2 kts 131°
2026-04-22 17:58 55.62764 12.66436 15 ft 2 kts 145°
2026-04-22 17:58 55.62777 12.66423 16 ft 2 kts 163°
2026-04-22 17:58 55.62791 12.66419 16 ft 2 kts 180°
2026-04-22 17:59 55.62806 12.66422 16 ft 2 kts 198°
2026-04-22 17:59 55.62820 12.66433 17 ft 2 kts 216°
2026-04-22 17:59 55.62825 12.66441 17 ft 0 kts 222°
2026-04-22 18:04 55.62823 12.66437 17 ft 1 kts 222°
2026-04-22 18:05 55.62803 12.66407 16 ft 5 kts 222°
2026-04-22 18:05 55.62767 12.66350 16 ft 7 kts 223°
2026-04-22 18:05 55.62723 12.66280 17 ft 9 kts 220°
2026-04-22 18:05 55.62669 12.66200 17 ft 11 kts 221°
2026-04-22 18:06 55.62597 12.66132 17 ft 13 kts 181°
2026-04-22 18:06 55.62510 12.66187 16 ft 14 kts 142°
2026-04-22 18:06 55.62420 12.66162 15 ft 15 kts 224°
2026-04-22 18:06 55.62329 12.66019 13 ft 19 kts 222°
2026-04-22 18:07 55.62299 12.65878 13 ft 19 kts 271°
2026-04-22 18:07 55.62296 12.65593 16 ft 16 kts 269°
2026-04-22 18:07 55.62294 12.65384 16 ft 15 kts 268°
2026-04-22 18:07 55.62293 12.65358 16 ft 0 kts 269°
2026-04-22 18:08 55.62293 12.65323 16 ft 8 kts 269°
2026-04-22 18:08 55.62261 12.65202 15 ft 13 kts 192°
2026-04-22 18:08 55.62163 12.65128 13 ft 17 kts 214°
2026-04-22 18:08 55.62053 12.65001 13 ft 20 kts 213°
2026-04-22 18:09 55.61927 12.64855 13 ft 22 kts 214°
2026-04-22 18:09 55.61787 12.64695 13 ft 25 kts 213°
2026-04-22 18:09 55.61657 12.64545 13 ft 21 kts 214°
2026-04-22 18:09 55.61524 12.64391 13 ft 24 kts 214°
2026-04-22 18:10 55.61376 12.64222 14 ft 26 kts 213°
2026-04-22 18:10 55.61218 12.64040 14 ft 27 kts 213°
2026-04-22 18:10 55.61092 12.63895 15 ft 18 kts 213°
2026-04-22 18:10 55.60972 12.63757 15 ft 21 kts 213°
2026-04-22 18:11 55.60837 12.63602 13 ft 25 kts 213°
2026-04-22 18:11 55.60685 12.63427 13 ft 24 kts 214°
2026-04-22 18:11 55.60567 12.63257 12 ft 23 kts 221°
2026-04-22 18:11 55.60475 12.63120 13 ft 13 kts 209°
2026-04-22 18:12 55.60387 12.63177 11 ft 16 kts 129°
2026-04-22 18:12 55.60356 12.63367 10 ft 19 kts 54°
2026-04-22 18:12 55.60450 12.63519 10 ft 40 kts 39°
2026-04-22 18:12 55.60881 12.64183 13 ft 80 kts 41°
2026-04-22 18:13 55.61442 12.65046 14 ft 125 kts 40°
2026-04-22 18:13 55.62200 12.66226 225 ft 160 kts 36°
2026-04-22 18:13 55.63066 12.67538 975 ft 171 kts 36°
2026-04-22 18:13 55.64056 12.69103 1203 ft 214 kts 36°
2026-04-22 18:14 55.65243 12.70950 1567 ft 236 kts 34°
2026-04-22 18:14 55.66709 12.71980 2219 ft 228 kts 360°
2026-04-22 18:14 55.68240 12.71566 3046 ft 223 kts 347°
2026-04-22 18:14 55.69767 12.71177 3775 ft 226 kts 351°
2026-04-22 18:15 55.71324 12.70841 4448 ft 229 kts 351°
2026-04-22 18:15 55.72928 12.70514 5165 ft 231 kts 352°
2026-04-22 18:15 55.74507 12.70200 5855 ft 233 kts 353°
2026-04-22 18:15 55.76116 12.69881 6517 ft 235 kts 353°
2026-04-22 18:16 55.77733 12.69558 7144 ft 237 kts 353°